| time (UTC) | temp F | wind direction | speed MPH | gust MPH | rain 1hr in | rain 24hr in | rain mn in | humidity % | barometer mb |
| 20260905154410 | 65 | 5 | 7.0 | 14.0 | 0.00 | 0.00 | 0.00 | 68 | 1021.4 |
| 20260905153410 | 66 | 297 | 7.0 | 16.0 | 0.00 | 0.00 | 0.00 | 67 | 1021.4 |
| 20260905152411 | 67 | 298 | 11.0 | 23.0 | 0.00 | 0.00 | 0.00 | 65 | 1021.2 |
| 20260905151410 | 67 | 296 | 12.0 | 19.0 | 0.00 | 0.00 | 0.00 | 66 | 1021.1 |
| 20260905145411 | 67 | 348 | 10.0 | 18.0 | 0.00 | 0.00 | 0.00 | 67 | 1021.0 |
| 20260905144410 | 66 | 334 | 10.0 | 18.0 | 0.00 | 0.00 | 0.00 | 68 | 1020.9 |
| 20260905143410 | 69 | 292 | 11.0 | 20.0 | 0.00 | 0.00 | 0.00 | 63 | 1020.7 |
| 20260905120406 | 68 | 296 | 11.0 | 23.0 | 0.00 | 0.00 | 0.00 | 63 | 1019.0 |
| 20260905115406 | 67 | 269 | 9.0 | 17.0 | 0.00 | 0.06 | 0.00 | 67 | 1018.8 |
| 20260905112406 | 67 | 348 | 9.0 | 20.0 | 0.00 | 0.06 | 0.00 | 71 | 1018.5 |
| 20260905111406 | 67 | 269 | 12.0 | 25.0 | 0.00 | 0.06 | 0.00 | 72 | 1018.4 |
| 20260905110406 | 65 | 336 | 7.0 | 16.0 | 0.00 | 0.06 | 0.00 | 76 | 1018.3 |
| 20260905105406 | 64 | 314 | 9.0 | 20.0 | 0.00 | 0.09 | 0.00 | 73 | 1018.1 |
| 20260905104406 | 65 | 277 | 10.0 | 17.0 | 0.00 | 0.09 | 0.00 | 71 | 1018.0 |
| 20260905103407 | 65 | 265 | 10.0 | 25.0 | 0.00 | 0.09 | 0.00 | 69 | 1017.8 |
| 20260905102406 | 65 | 276 | 11.0 | 24.0 | 0.00 | 0.09 | 0.00 | 69 | 1017.5 |
| 20260905100406 | 66 | 305 | 11.0 | 20.0 | 0.00 | 0.09 | 0.00 | 67 | 1017.4 |
| 20260905095406 | 66 | 274 | 9.0 | 21.0 | 0.00 | 0.28 | 0.00 | 69 | 1017.3 |
| 20260905092406 | 65 | 263 | 11.0 | 23.0 | 0.00 | 0.28 | 0.00 | 76 | 1016.8 |
| 20260905091407 | 64 | 213 | 9.0 | 18.0 | 0.00 | 0.28 | 0.00 | 83 | 1016.8 |
| 20260905090406 | 64 | 273 | 6.0 | 13.0 | 0.00 | 0.28 | 0.00 | 84 | 1016.8 |
| 20260905085406 | 64 | 264 | 7.0 | 17.0 | 0.00 | 0.31 | 0.00 | 83 | 1016.6 |
| 20260905083407 | 63 | 274 | 7.0 | 16.0 | 0.00 | 0.31 | 0.00 | 85 | 1016.5 |
| 20260905082406 | 63 | 263 | 5.0 | 14.0 | 0.00 | 0.31 | 0.00 | 87 | 1016.4 |
| 20260905081407 | 62 | 274 | 7.0 | 17.0 | 0.00 | 0.31 | 0.00 | 87 | 1016.4 |
| 20260905075406 | 62 | 267 | 5.0 | 16.0 | 0.00 | 0.31 | 0.00 | 87 | 1016.1 |
| 20260905074406 | 62 | 224 | 8.0 | 17.0 | 0.00 | 0.31 | 0.00 | 86 | 1016.0 |
| 20260905073406 | 62 | 217 | 6.0 | 14.0 | 0.00 | 0.31 | 0.00 | 87 | 1016.0 |
| 20260905072406 | 61 | 211 | 4.0 | 10.0 | 0.00 | 0.31 | 0.00 | 88 | 1015.8 |
| 20260905071406 | 61 | 182 | 5.0 | 14.0 | 0.00 | 0.31 | 0.00 | 87 | 1015.7 |
| 20260905070406 | 60 | 252 | 5.0 | 16.0 | 0.00 | 0.31 | 0.00 | 88 | 1015.5 |
| 20260905065406 | 60 | 256 | 4.0 | 13.0 | 0.00 | 0.31 | 0.00 | 88 | 1015.4 |
| 20260905064406 | 60 | 275 | 4.0 | 12.0 | 0.00 | 0.31 | 0.00 | 89 | 1015.2 |
| 20260905063406 | 59 | 288 | 5.0 | 12.0 | 0.00 | 0.31 | 0.00 | 89 | 1015.3 |
| 20260905062406 | 59 | 193 | 5.0 | 14.0 | 0.00 | 0.31 | 0.00 | 90 | 1015.2 |
| 20260905061406 | 58 | 248 | 4.0 | 10.0 | 0.00 | 0.31 | 0.00 | 90 | 1015.1 |
| 20260905060406 | 58 | 175 | 5.0 | 12.0 | 0.00 | 0.31 | 0.00 | 90 | 1015.1 |
| 20260905053406 | 58 | 237 | 3.0 | 8.0 | 0.00 | 0.32 | 0.00 | 90 | 1014.9 |
| 20260905052406 | 58 | 207 | 4.0 | 13.0 | 0.00 | 0.32 | 0.00 | 89 | 1014.8 |
| 20260905051406 | 58 | 243 | 4.0 | 11.0 | 0.00 | 0.32 | 0.00 | 89 | 1014.7 |
| 20260905050406 | 58 | 202 | 5.0 | 12.0 | 0.00 | 0.32 | 0.00 | 89 | 1014.8 |
| 20260905045406 | 57 | 232 | 3.0 | 8.0 | 0.00 | 0.35 | 0.00 | 90 | 1014.7 |
| 20260905043406 | 57 | 190 | 2.0 | 6.0 | 0.00 | 0.35 | 0.00 | 91 | 1014.5 |
| 20260905042406 | 56 | 251 | 2.0 | 8.0 | 0.00 | 0.35 | 0.00 | 91 | 1014.5 |
| 20260905041408 | 56 | 252 | 3.0 | 9.0 | 0.00 | 0.35 | 0.00 | 91 | 1014.4 |
| 20260905035406 | 56 | 213 | 3.0 | 9.0 | 0.00 | 0.39 | 0.00 | 91 | 1014.4 |
| 20260905033406 | 56 | 241 | 3.0 | 8.0 | 0.00 | 0.39 | 0.00 | 91 | 1014.5 |
| 20260905032406 | 56 | 181 | 2.0 | 6.0 | 0.00 | 0.39 | 0.00 | 91 | 1014.4 |
| 20260905030406 | 56 | 229 | 2.0 | 6.0 | 0.00 | 0.39 | 0.00 | 90 | 1014.4 |
| 20260905025407 | 57 | 234 | 2.0 | 6.0 | 0.00 | 0.39 | 0.00 | 90 | 1014.4 |
| 20260905024406 | 57 | 187 | 3.0 | 7.0 | 0.00 | 0.39 | 0.00 | 90 | 1014.3 |
| 20260905023406 | 57 | 234 | 3.0 | 7.0 | 0.00 | 0.39 | 0.00 | 89 | 1014.3 |
| 20260905022406 | 57 | 287 | 3.0 | 8.0 | 0.00 | 0.39 | 0.00 | 89 | 1014.2 |
| 20260905020407 | 57 | 240 | 3.0 | 8.0 | 0.00 | 0.39 | 0.00 | 89 | 1014.1 |
| 20260905015406 | 57 | 245 | 2.0 | 8.0 | 0.00 | 0.40 | 0.00 | 89 | 1014.0 |
| 20260905014406 | 57 | 229 | 3.0 | 8.0 | 0.00 | 0.40 | 0.00 | 89 | 1013.9 |
| 20260905011406 | 57 | 228 | 3.0 | 8.0 | 0.00 | 0.40 | 0.00 | 90 | 1013.8 |
| 20260905005406 | 57 | 244 | 2.0 | 7.0 | 0.00 | 0.41 | 0.00 | 91 | 1013.8 |
| 20260905002406 | 57 | 244 | 3.0 | 9.0 | 0.00 | 0.41 | 0.00 | 92 | 1013.6 |
| 20260905001406 | 57 | 259 | 2.0 | 7.0 | 0.00 | 0.41 | 0.00 | 92 | 1013.6 |
| 20260905000406 | 57 | 301 | 2.0 | 7.0 | 0.00 | 0.41 | 0.00 | 92 | 1013.6 |
| 20260904235406 | 57 | 209 | 2.0 | 5.0 | 0.00 | 0.41 | 0.00 | 91 | 1013.5 |
| 20260904234407 | 57 | 246 | 2.0 | 6.0 | 0.00 | 0.41 | 0.00 | 91 | 1013.5 |
| 20260904233406 | 57 | 247 | 2.0 | 5.0 | 0.00 | 0.41 | 0.00 | 91 | 1013.5 |
| 20260904232408 | 58 | 296 | 2.0 | 5.0 | 0.00 | 0.41 | 0.00 | 91 | 1013.3 |
| 20260904231406 | 58 | 274 | 2.0 | 6.0 | 0.00 | 0.41 | 0.00 | 90 | 1013.3 |
| 20260904230407 | 58 | 286 | 3.0 | 7.0 | 0.00 | 0.41 | 0.00 | 91 | 1013.2 |
| 20260904225408 | 58 | 266 | 3.0 | 9.0 | 0.00 | 0.41 | 0.00 | 90 | 1013.2 |
| 20260904224407 | 59 | 272 | 3.0 | 8.0 | 0.00 | 0.41 | 0.00 | 90 | 1013.1 |
| 20260904223407 | 59 | 253 | 5.0 | 12.0 | 0.00 | 0.41 | 0.00 | 90 | 1013.1 |
| 20260904222408 | 59 | 236 | 4.0 | 11.0 | 0.00 | 0.41 | 0.00 | 90 | 1013.0 |
| 20260904221407 | 58 | 256 | 3.0 | 7.0 | 0.00 | 0.41 | 0.00 | 90 | 1012.9 |
| 20260904220407 | 58 | 221 | 2.0 | 4.0 | 0.00 | 0.41 | 0.00 | 90 | 1012.8 |
| 20260904215407 | 58 | 257 | 2.0 | 4.0 | 0.00 | 0.41 | 0.41 | 90 | 1012.8 |
| 20260904181409 | 62 | 305 | 4.0 | 10.0 | 0.00 | 0.41 | 0.41 | 85 | 1010.8 |
| 20260904180409 | 62 | 276 | 5.0 | 10.0 | 0.00 | 0.41 | 0.41 | 85 | 1010.7 |
| 20260904175409 | 62 | 208 | 3.0 | 9.0 | 0.00 | 0.41 | 0.41 | 84 | 1010.6 |
| 20260904174409 | 63 | 267 | 3.0 | 8.0 | 0.00 | 0.41 | 0.41 | 83 | 1010.5 |
| 20260904173409 | 63 | 244 | 5.0 | 9.0 | 0.00 | 0.41 | 0.41 | 83 | 1010.5 |
| 20260904171409 | 64 | 277 | 5.0 | 11.0 | 0.00 | 0.41 | 0.41 | 83 | 1010.3 |
| 20260904165409 | 64 | 5 | 9.0 | 18.0 | 0.00 | 0.41 | 0.41 | 82 | 1010.1 |
| 20260904164409 | 64 | 302 | 6.0 | 15.0 | 0.00 | 0.41 | 0.41 | 85 | 1009.9 |
| 20260904163409 | 64 | 271 | 6.0 | 13.0 | 0.00 | 0.41 | 0.41 | 86 | 1009.7 |
| 20260904160409 | 64 | 280 | 6.0 | 15.0 | 0.00 | 0.41 | 0.41 | 87 | 1009.5 |
| 20260904155409 | 64 | 279 | 8.0 | 17.0 | 0.00 | 0.41 | 0.41 | 87 | 1009.3 |